FENGYUN 1C DEB, 30604

Orbit data source: Space-Track

FENGYUN 1C DEB, 30604 is space debris in SSO originally from a launch on Mon, 10 May 1999 UTC launched from the Taiyaun Space Center, China (TSC). Fengyun 1C debris stems from the Chinese weather satellite Fengyun-1C, which was intentionally destroyed by a Chinese anti-satellite missile in 2007. This event dramatically increased the amount of space debris, with thousands of trackable fragments posing hazards to satellites and human spaceflight. The Fengyun 1C debris cloud has become a focal point in discussions about space sustainability and the need for international regulations to prevent the creation of new debris.

Loading next visibility...
Identifier
30604, 1999-025AMK
Orbit
SSO
Country
Flag of CNCN / PRC
Related business
Manufacturer
Unknown
Mission
Spacecraft
Bus & Motor
Unknown
Mass
Unknown
Launch date (UTC)
1999-05-10 (27 years ago)
Launch vehicle
Unknown
Launch site
Taiyaun Space Center, China (TSC)
Object type
Payload
Rocket body
Debris
Shape & HBR
Unknown shape, 0.1 m
Radar Cross Section
Small (<0.1 m²)

Expand to show TLE details & history
Last TLE update: 19 hours ago

TLE from 19 hours ago
0 FENGYUN 1C DEB
1 30604U 99025AMK 25352.08098216  .00000665  00000-0  24882-3 0  9993
2 30604  98.4020  26.6842 0209344 351.2265  34.6256 14.23619205979152
Epoch: 2025-12-18T01:56Z
TLE epoch observation values (Epoch: 2025-12-18T01:56:36.858Z)
Latitude
26.96854°
Longitude
-93.69786°
Altitude
693.58 km
Speed
7.576 km/s
True Right ascension
01h 29m 35s
True Declination
26° 49' 43"
Sunlit
Object was in full shadow at epoch
Visualization orbit readout
Latitude
Unknown
Longitude
Unknown
Altitude
Unknown
Speed
Unknown
Apparent Right ascension
Unknown
Apparent Declination
Unknown
Sunlit
N/A
Visualization observer readout
Local Sidereal Time
19:21:34
Azimuth
Unknown
Elevation
Unknown
Doppler factor
Unknown
Orbital elements
Apogee altitude
960.761 km
Perigee altitude
659.791 km
Semi-major axis
7,188.413 km
Eccentricity
0.02093
Inclination
98.402°
RAAN
26.6842°
Arg. of periapsis
351.2265°
True anomaly
36.01852°
Mean anomaly
34.6256°
Eccentric anomaly
35.31904°
Mean motion
3.56118 °/min
Orbital period
101.09 mins
BSTAR
0.00024882
Loading maneuver chart data...
Computing Atmospheric mass density...

Documentation

Showing up to 5 results
|